AirNav   Air Wisconsin pilot careers
 
 453 users online  

3L2 Sky Ranch Airport
Sandy Valley, Nevada, USA

GOING TO SANDY VALLEY?


FAA INFORMATION EFFECTIVE 13 SEPTEMBER 2018

Location

FAA Identifier: 3L2
Lat/Long: 35-47-34.6000N / 115-37-35.1000W
35-47.576667N / 115-37.585000W
35.7929444 / -115.6264167
(estimated)
Elevation: 2599 ft. / 792.2 m (surveyed)
Variation: 14E (1985)
From city: 2 miles SW of SANDY VALLEY, NV
Time zone: UTC -7 (UTC -8 during Standard Time)
Zip code: 89019

Airport Operations

Airport use: Open to the public
Activation date: 06/1979
Control tower: no
ARTCC: LOS ANGELES CENTER
FSS: RENO FLIGHT SERVICE STATION
NOTAMs facility: RNO (NOTAM-D service available)
Attendance: IREG
Wind indicator: yes
Segmented circle: yes
Lights: SS-SR

Airport Communications

CTAF/UNICOM: 123.0

Nearby radio navigation aids

VOR radial/distance  VOR name  Freq  Var
LASr218/28.5LAS VEGAS VORTAC116.9015E
BLDr237/39.0BOULDER CITY VORTAC116.7015E

Airport Services

Parking: hangars and tiedowns

Runway Information

Runway 3/21

Dimensions: 3340 x 45 ft. / 1018 x 14 m
Surface: asphalt, in good condition
Runway edge lights: non-standard
RY 03/21 THLD LGTS ONLY. RY EDGES MARKED WITH REFLECTORS.
RUNWAY 3  RUNWAY 21
Traffic pattern: rightleft
Displaced threshold: no180 ft.
DSPLCD THLD MARKED WITH 8 FT WHITE LINE.
Markings: basic, in good conditionbasic, in good condition
Obstructions: none17 ft. road, 200 ft. from runway
+16 FT ROAD, 0-200 FT FROM RWY END, 125 FT R TO OB. +4 FT FENCE, 0-200 FT FROM RWY END, 108 FT R TO OB.

Runway 12/30

Dimensions: 3300 x 105 ft. / 1006 x 32 m
Surface: dirt, in fair condition
Operational restrictions: RY 12/30 THLD NOT MARKED.
RUNWAY 12  RUNWAY 30
Latitude: 35-47.765960N35-47.388083N
Longitude: 115-37.825518W115-37.345095W
Elevation: 2575.0 ft.2575.0 ft.
Traffic pattern: rightleft
Runway heading: 120 magnetic, 134 true300 magnetic, 314 true
Markings: nonenone

Airport Ownership and Management from official FAA records

Ownership: Privately-owned
Owner: SKY RANCH HOMEOWNERS ASSN
838 SARATOGA AVENUE
SANDY VALLEY, NV 89019-8623
Phone 702-723-5018
Manager: WILLIAM POOLE
BOX 455
SANDY VALLEY, NV 89019-8529
Phone (619) 249-5750

Airport Operational Statistics

Aircraft based on the field: 75
Single engine airplanes: 65
Multi engine airplanes: 5
Gliders airplanes: 2
Ultralights: 3
    
Aircraft operations: avg 57/week *
90% local general aviation
10% transient general aviation
* for 12-month period ending 30 November 2015

Additional Remarks

AVOID NOISE SENSITIVE RESIDENTIAL AREA 1.5 MILES NW OF ARPT.
LOW FLYING MILITARY AIRCRAFT IN AREA.
UNMARKED & UNLIGHTED POWER POLES/LINES NW/SE OF RWY 03/21.
ARPT IS A RESIDENTIAL AIRPARK; AUTO TRAFFIC IS ON & ACROSS RWYS & TWYS.
OCNL LIVESTOCK ON AND INVOF ACFT MOVEMENT AREAS.
RY 03/21 OBSTACLE FREE AREA LIMITED TO 96 FT EITHER SIDE OF RY CNTRLN.
NO LINE OF SIGHT BTWN RY ENDS.
ULTRALIGHT ACTIVITY ON AND IN VICINTY OF AIRPORT.
FOR CD CTC LAS APCH AT 725-200-4432.

Instrument Procedures

There are no published instrument procedures at 3L2.

Some nearby airports with instrument procedures:

KHND - Henderson Executive Airport (26 nm NE)
KLAS - Mc Carran International Airport (29 nm NE)
KVGT - North Las Vegas Airport (33 nm NE)
KBVU - Boulder City Municipal Airport (38 nm E)
KLSV - Nellis Air Force Base (39 nm NE)
 
Loc | Ops | Rwys | IFR | FBO | Links
Com | Nav | Svcs | Stats | Notes


 
Area around 3L2 (Sky Ranch Airport)
 
Road maps at: MapQuest Bing Google
 
Aerial photo
WARNING: Photo may not be current or correct
Aerial photo of 3L2 (Sky Ranch Airport)
Photo by Greg Tarasoff

Do you have a better or more recent aerial photo of Sky Ranch Airport that you would like to share? If so, please send us your photo.

 
Sectional chart

 
Airport distance calculator
Flying to Sky Ranch Airport? Find the distance to fly.

From to 3L2

Sunrise and sunset
Times for 22-Sep-2018
 Local
(UTC-7)
 Zulu
(UTC)
Morning civil twilight06:0613:06
Sunrise06:3113:31
Sunset18:3901:39
Evening civil twilight19:0402:04

Current date and time
Zulu (UTC)  23-Sep-2018 05:20:48
Local (UTC-7)  22-Sep-2018 22:20:48
 
METAR
KHND 
27nm NE 
230456Z AUTO 17005KT 10SM CLR 28/03 A2993 RMK AO2 SLP107 T02780033 $
KLAS 
29nm NE 
230456Z 16006KT 10SM CLR 31/04 A2988 RMK AO2 SLP091 T03060039
KVGT 
32nm NE 
230453Z AUTO 25005KT 10SM CLR 31/03 A2988 RMK AO2 SLP107 T03110028
KBVU 
38nm E 
230455Z AUTO 29003KT 10SM CLR 29/02 A2990 RMK AO2
KLSV 
39nm NE 
230458Z AUTO 00000KT 10SM CLR 31/03 A2986 RMK AO2 SLP087 T03140025
TAF
KHND 
27nm NE 
221723Z 2218/2318 VRB05KT P6SM SKC FM222000 20012G20KT P6SM FEW120 FM230200 20009KT P6SM SKC
KLAS 
29nm NE 
230234Z 2303/2406 21009KT P6SM SKC FM231200 VRB05KT P6SM FEW120 FM231900 21012G20KT P6SM FEW120 FM240200 21008KT P6SM FEW250
KVGT 
32nm NE 
221723Z 2218/2318 13008KT P6SM FEW120 FM222100 18010G18KT P6SM FEW120 FM230200 23007KT P6SM SKC FM230800 34005KT P6SM SKC FM231700 12006KT P6SM FEW120
NOTAMs
Click for the latest NOTAMs
NOTAMs are issued by the DoD/FAA and will open in a separate window not controlled by AirNav.

 

 
 

Would you like to see your business listed on this page?

 If your business provides an interesting product or service to pilots, flight crews, aircraft, or users of the Sky Ranch Airport, you should consider listing it here.  To start the listing process, click on the button below
 
Add a business
 

Other Pages about Sky Ranch Airport

Update a link
 
Copyright © AirNav, LLC. All rights reserved. Privacy Policy  Contact